Location: Caltech
(34.1382°N, 118.1253°W)
Time: 15:16:48
(UTC-07:00)

RS-15 - Visible Passes

Search period start: 28 August 2015 00:00
Search period end: 07 September 2015 00:00
Orbit: 1891 x 2154 km, 64.8° (Epoch: 26 August)

Date Brightness Start Highest point End Pass type
(mag) Time Alt. Az. Time Alt. Az. Time Alt. Az.
28 Aug 9.4 00:33:08 10° NNW 00:42:40 28° NE 00:52:51 10° E visible
28 Aug 7.9 02:44:52 10° NNW 02:56:51 86° WSW 03:01:12 49° SSE visible
28 Aug 9.0 05:00:24 10° WNW 05:08:11 19° WSW 05:08:33 18° WSW visible
28 Aug 10.2 21:43:40 10° NNW 21:46:47 11° N 21:49:53 10° NNE visible
28 Aug 9.6 23:57:19 10° NNW 00:05:46 23° NNE 00:14:54 10° E visible
29 Aug 8.1 02:08:49 10° NNW 02:20:46 76° ENE 02:23:23 61° ESE visible
29 Aug 8.8 04:22:54 10° NW 04:30:56 27° W 04:30:56 27° W visible
29 Aug 10.1 21:05:23 10° NNW 21:09:18 12° N 21:13:02 10° N visible
29 Aug 9.8 23:21:28 10° NNW 23:28:42 18° NNE 23:36:35 10° ENE visible
30 Aug 8.4 01:32:52 10° NNW 01:44:33 60° NE 01:46:43 54° E visible
30 Aug 8.6 03:46:01 10° NW 03:54:19 35° W 03:54:19 35° W visible
30 Aug 10.1 20:26:41 10° NW 20:31:54 13° NNW 20:36:49 10° N visible
30 Aug 9.9 22:45:35 10° N 22:51:28 15° NNE 22:57:56 10° NE visible
31 Aug 8.7 00:56:58 10° NNW 01:08:11 47° NE 01:10:29 44° ENE visible
31 Aug 8.4 03:09:30 10° NW 03:18:08 45° WNW 03:18:08 45° WNW visible
31 Aug 10.0 19:48:05 10° WNW 19:54:37 16° NNW 20:00:52 10° N visible
31 Aug 10.0 22:09:33 10° N 22:14:06 13° NNE 22:19:05 10° NE visible
01 Sep 9.0 00:21:06 10° NNW 00:31:39 37° NE 00:34:34 34° ENE visible
01 Sep 8.3 02:33:11 10° NW 02:42:13 55° WNW 02:42:13 55° WNW visible
01 Sep 10.0 21:33:12 10° NNW 21:36:39 12° N 21:40:20 10° NNE visible
01 Sep 9.2 23:45:16 10° NNW 23:54:57 29° NE 23:58:49 26° ENE visible
02 Sep 8.2 01:57:01 10° NNW 02:06:29 64° NW 02:06:29 64° NW visible
02 Sep 9.5 04:12:52 10° WNW 04:14:09 12° WNW 04:14:09 12° WNW visible
02 Sep 10.0 20:56:03 10° NNW 20:59:09 11° N 21:02:17 10° NNE visible
02 Sep 9.5 23:09:26 10° NNW 23:18:04 23° NE 23:23:12 19° ENE visible
03 Sep 8.2 01:20:59 10° NNW 01:30:52 66° N 01:30:52 66° N visible
03 Sep 9.4 03:35:13 10° NW 03:38:33 18° WNW 03:38:33 18° WNW visible
03 Sep 10.0 20:17:53 10° NNW 20:21:40 12° N 20:25:17 10° N visible
03 Sep 9.7 22:33:36 10° NNW 22:41:01 19° NNE 22:47:42 13° ENE visible
04 Sep 8.4 00:45:01 10° NNW 00:55:23 59° NNE 00:55:23 59° NNE visible
04 Sep 9.2 02:58:17 10° NW 03:03:04 25° WNW 03:03:04 25° WNW visible
04 Sep 10.0 19:39:13 10° NW 19:44:15 13° NNW 19:49:00 10° N visible
04 Sep 9.8 21:57:43 10° N 22:03:49 15° NNE 22:10:31 10° ENE visible
05 Sep 8.6 00:09:05 10° NNW 00:19:58 49° NE 00:19:58 49° NE visible
05 Sep 8.9 02:21:42 10° NW 02:27:40 32° WNW 02:27:40 32° WNW visible
05 Sep 9.8 21:21:43 10° N 21:26:28 13° NNE 21:31:41 10° NE visible
05 Sep 8.8 23:33:14 10° NNW 23:43:54 38° NE 23:44:38 38° NE visible
06 Sep 8.7 01:45:22 10° NW 01:52:20 41° NW 01:52:20 41° NW visible
06 Sep 9.9 20:45:25 10° N 20:49:02 12° N 20:52:54 10° NNE visible
06 Sep 9.1 22:57:23 10° NNW 23:07:14 30° NE 23:09:21 29° ENE visible
